TGL9305 LFBZ-LICC

Flight info

Callsign TGL9305
Flight time 2h 12m
Altitude 35000
Route SOVOS G17 ORTEZ DCT TBO DCT PERDU N862 POSSY M601 BCN N725 ORKUM M603 ELSAG DCT ALG DCT QUENN DCT RONAB DCT BEKIV M871 LIBRO
Aircraft A320/M-SDE3FGHIRWY/LB1

Departure

Time 2026-05-06 14:29
Airport Biarritz Pays Basque airport (LFBZ)

Arrival

Time 2026-05-06 16:42
Airport Catania-Fontanarossa Airport (LICC)
Time Latitude Longitude Altitude Speed Heading
2026-05-06 14:08 43.47141 -1.53067 246 ft 0 kts 344°
2026-05-06 14:20 43.47128 -1.53062 246 ft 4 kts 342°
2026-05-06 14:20 43.47102 -1.53052 246 ft 4 kts 350°
2026-05-06 14:20 43.47075 -1.53050 246 ft 4 kts 17°
2026-05-06 14:20 43.47056 -1.53069 246 ft 4 kts 76°
2026-05-06 14:21 43.47054 -1.53079 246 ft 1 kts 89°
2026-05-06 14:23 43.47054 -1.53061 246 ft 5 kts 89°
2026-05-06 14:23 43.47056 -1.52971 246 ft 12 kts 89°
2026-05-06 14:23 43.47034 -1.52876 246 ft 8 kts 150°
2026-05-06 14:24 43.46993 -1.52818 246 ft 10 kts 101°
2026-05-06 14:24 43.46995 -1.52702 246 ft 16 kts 89°
2026-05-06 14:24 43.46996 -1.52524 246 ft 20 kts 90°
2026-05-06 14:24 43.46997 -1.52330 246 ft 20 kts 89°
2026-05-06 14:25 43.46980 -1.52196 246 ft 10 kts 131°
2026-05-06 14:25 43.46938 -1.52176 247 ft 0 kts 179°
2026-05-06 14:26 43.46930 -1.52176 247 ft 7 kts 179°
2026-05-06 14:26 43.46866 -1.52163 248 ft 11 kts 153°
2026-05-06 14:26 43.46843 -1.52049 248 ft 16 kts 89°
2026-05-06 14:26 43.46845 -1.51862 248 ft 23 kts 89°
2026-05-06 14:27 43.46847 -1.51613 248 ft 28 kts 89°
2026-05-06 14:27 43.46850 -1.51342 248 ft 28 kts 89°
2026-05-06 14:27 43.46852 -1.51097 248 ft 14 kts 89°
2026-05-06 14:27 43.46878 -1.51013 249 ft 7 kts 52°
2026-05-06 14:28 43.46869 -1.50953 249 ft 10 kts 167°
2026-05-06 14:28 43.46852 -1.51020 249 ft 8 kts 270°
2026-05-06 14:28 43.46852 -1.51049 249 ft 0 kts 269°
2026-05-06 14:29 43.46851 -1.51087 248 ft 21 kts 269°
2026-05-06 14:29 43.46846 -1.51637 248 ft 91 kts 270°
2026-05-06 14:29 43.46834 -1.52772 273 ft 141 kts 268°
2026-05-06 14:29 43.46808 -1.54130 867 ft 141 kts 270°
2026-05-06 14:30 43.46782 -1.55508 1539 ft 149 kts 269°
2026-05-06 14:30 43.46760 -1.56947 2351 ft 153 kts 270°
2026-05-06 14:30 43.46736 -1.58499 2940 ft 172 kts 271°
2026-05-06 14:30 43.46698 -1.60196 3741 ft 173 kts 262°
2026-05-06 14:31 43.46136 -1.61702 4619 ft 185 kts 236°
2026-05-06 14:31 43.45194 -1.62972 5281 ft 202 kts 218°
2026-05-06 14:31 43.43861 -1.63675 6094 ft 212 kts 182°
2026-05-06 14:31 43.42523 -1.62957 7091 ft 208 kts 142°
2026-05-06 14:32 43.41557 -1.61366 7602 ft 228 kts 116°
2026-05-06 14:32 43.41052 -1.59291 8201 ft 236 kts 103°
2026-05-06 14:32 43.40727 -1.56940 8362 ft 264 kts 97°
2026-05-06 14:32 43.40463 -1.54389 8959 ft 272 kts 95°
2026-05-06 14:33 43.40246 -1.51799 9849 ft 274 kts 94°
2026-05-06 14:33 43.40073 -1.49187 10706 ft 274 kts 92°
2026-05-06 14:33 43.39855 -1.46589 11604 ft 274 kts 97°
2026-05-06 14:33 43.39538 -1.43970 12366 ft 280 kts 95°
2026-05-06 14:34 43.39432 -1.41281 13060 ft 288 kts 90°
2026-05-06 14:34 43.39376 -1.38424 13372 ft 311 kts 90°
2026-05-06 14:34 43.39329 -1.35331 13621 ft 334 kts 90°
2026-05-06 14:34 43.39286 -1.32036 13847 ft 356 kts 90°
2026-05-06 14:35 43.39242 -1.28558 14192 ft 370 kts 90°
2026-05-06 14:35 43.39197 -1.25007 14858 ft 373 kts 90°
2026-05-06 14:35 43.39151 -1.21432 15515 ft 376 kts 90°
2026-05-06 14:35 43.39103 -1.17816 16179 ft 379 kts 90°
2026-05-06 14:36 43.39054 -1.14173 16827 ft 383 kts 90°
2026-05-06 14:36 43.39003 -1.10490 17477 ft 387 kts 90°
2026-05-06 14:36 43.38951 -1.06773 18106 ft 391 kts 90°
2026-05-06 14:36 43.38896 -1.03022 18699 ft 394 kts 90°
2026-05-06 14:37 43.38839 -0.99238 19346 ft 397 kts 90°
2026-05-06 14:37 43.38782 -0.95425 20010 ft 400 kts 90°
2026-05-06 14:37 43.38722 -0.91591 20587 ft 404 kts 90°
2026-05-06 14:37 43.38448 -0.87733 21125 ft 408 kts 98°
2026-05-06 14:38 43.37984 -0.83873 21669 ft 411 kts 98°
2026-05-06 14:38 43.37527 -0.79977 22206 ft 414 kts 98°
2026-05-06 14:38 43.37069 -0.76058 22735 ft 417 kts 98°
2026-05-06 14:38 43.36624 -0.72155 23258 ft 420 kts 95°
2026-05-06 14:39 43.36418 -0.68142 23742 ft 422 kts 91°
2026-05-06 14:39 43.36283 -0.64104 24197 ft 424 kts 91°
2026-05-06 14:39 43.36142 -0.60047 24668 ft 426 kts 91°
2026-05-06 14:39 43.35996 -0.55969 25111 ft 429 kts 91°
2026-05-06 14:40 43.35847 -0.51866 25534 ft 431 kts 91°
2026-05-06 14:40 43.35695 -0.47743 25961 ft 433 kts 91°
2026-05-06 14:40 43.35541 -0.43595 26363 ft 436 kts 91°
2026-05-06 14:40 43.35385 -0.39428 26763 ft 438 kts 91°
2026-05-06 14:41 43.35225 -0.35234 27154 ft 441 kts 91°
2026-05-06 14:41 43.35064 -0.31021 27530 ft 443 kts 91°
2026-05-06 14:41 43.34901 -0.26782 27884 ft 446 kts 91°
2026-05-06 14:41 43.34735 -0.22523 28232 ft 448 kts 91°
2026-05-06 14:42 43.34567 -0.18232 28572 ft 451 kts 91°
2026-05-06 14:42 43.34397 -0.13923 28902 ft 453 kts 91°
2026-05-06 14:42 43.34223 -0.09587 29201 ft 456 kts 91°
2026-05-06 14:42 43.34047 -0.05230 29515 ft 458 kts 91°
2026-05-06 14:43 43.33728 -0.00859 29774 ft 463 kts 100°
2026-05-06 14:43 43.32776 0.03375 30090 ft 466 kts 113°
2026-05-06 14:43 43.31192 0.07265 30325 ft 469 kts 126°
2026-05-06 14:43 43.29048 0.10634 30540 ft 469 kts 139°
2026-05-06 14:44 43.26451 0.13304 30863 ft 466 kts 152°
2026-05-06 14:44 43.23524 0.15177 31181 ft 462 kts 164°
2026-05-06 14:44 43.20423 0.16158 31546 ft 455 kts 177°
2026-05-06 14:45 43.14206 0.15725 32333 ft 445 kts 191°
2026-05-06 14:45 43.11118 0.15253 32743 ft 444 kts 188°
2026-05-06 14:45 43.08040 0.14979 33143 ft 443 kts 186°
2026-05-06 14:45 43.04999 0.14867 33515 ft 443 kts 185°
2026-05-06 14:46 43.01923 0.14848 33882 ft 441 kts 185°
2026-05-06 14:46 42.98858 0.14871 34177 ft 440 kts 184°
2026-05-06 14:46 42.95794 0.14905 34413 ft 440 kts 184°
2026-05-06 14:46 42.92731 0.14940 34640 ft 440 kts 184°
2026-05-06 14:47 42.89666 0.14972 34819 ft 441 kts 184°
2026-05-06 14:47 42.86596 0.15001 34947 ft 441 kts 185°
2026-05-06 14:47 42.83532 0.15028 34959 ft 440 kts 185°
2026-05-06 14:48 42.77422 0.15083 34952 ft 439 kts 185°
2026-05-06 14:48 42.71302 0.15137 34946 ft 439 kts 185°
2026-05-06 14:49 42.65195 0.15192 34938 ft 439 kts 185°
2026-05-06 14:49 42.59065 0.15246 34940 ft 442 kts 185°
2026-05-06 14:50 42.52954 0.15304 34917 ft 438 kts 185°
2026-05-06 14:50 42.46848 0.15359 34909 ft 438 kts 185°
2026-05-06 14:51 42.40752 0.15413 34909 ft 438 kts 185°
2026-05-06 14:51 42.34645 0.15467 34905 ft 439 kts 185°
2026-05-06 14:52 42.28542 0.15523 34903 ft 437 kts 185°
2026-05-06 14:52 42.22455 0.15579 34902 ft 437 kts 185°
2026-05-06 14:53 42.16385 0.15633 34900 ft 435 kts 185°
2026-05-06 14:53 42.13343 0.16006 34902 ft 444 kts 174°
2026-05-06 14:53 42.10391 0.17137 34914 ft 452 kts 163°
2026-05-06 14:53 42.07556 0.19054 34912 ft 461 kts 152°
2026-05-06 14:54 42.04997 0.21710 34919 ft 470 kts 141°
2026-05-06 14:54 42.02827 0.25040 34917 ft 478 kts 129°
2026-05-06 14:54 42.01146 0.28925 34916 ft 483 kts 120°
2026-05-06 14:55 41.98641 0.35676 34912 ft 481 kts 121°
2026-05-06 14:55 41.95135 0.45000 34911 ft 481 kts 121°
2026-05-06 14:56 41.92592 0.51727 34928 ft 482 kts 121°
2026-05-06 14:56 41.89581 0.59675 34920 ft 481 kts 121°
2026-05-06 14:57 41.86542 0.67675 34920 ft 481 kts 122°
2026-05-06 14:57 41.83496 0.75669 34922 ft 481 kts 122°
2026-05-06 14:58 41.80449 0.83644 34907 ft 480 kts 122°
2026-05-06 14:58 41.77395 0.91612 34902 ft 480 kts 122°
2026-05-06 14:59 41.74338 0.99566 34908 ft 480 kts 122°
2026-05-06 14:59 41.71275 1.07516 34909 ft 481 kts 122°
2026-05-06 15:00 41.68206 1.15458 34910 ft 481 kts 122°
2026-05-06 15:00 41.65129 1.23401 34907 ft 481 kts 123°
2026-05-06 15:01 41.62049 1.31330 34905 ft 481 kts 123°
2026-05-06 15:01 41.58954 1.39273 34901 ft 481 kts 123°
2026-05-06 15:02 41.55856 1.47204 34912 ft 481 kts 123°
2026-05-06 15:02 41.52755 1.55120 34912 ft 481 kts 123°
2026-05-06 15:03 41.49647 1.63032 34918 ft 481 kts 123°
2026-05-06 15:03 41.46532 1.70942 34913 ft 482 kts 123°
2026-05-06 15:04 41.43430 1.78797 34929 ft 483 kts 123°
2026-05-06 15:04 41.40293 1.86722 34939 ft 484 kts 123°
2026-05-06 15:05 41.37151 1.94639 34937 ft 483 kts 123°
2026-05-06 15:05 41.34012 2.02524 34935 ft 482 kts 123°
2026-05-06 15:06 41.31074 2.10580 34934 ft 489 kts 115°
2026-05-06 15:06 41.29286 2.19380 34937 ft 496 kts 107°
2026-05-06 15:07 41.27829 2.28339 34939 ft 495 kts 107°
2026-05-06 15:07 41.26349 2.37279 34938 ft 495 kts 107°
2026-05-06 15:08 41.24859 2.46218 34941 ft 495 kts 107°
2026-05-06 15:08 41.23364 2.55147 34943 ft 495 kts 107°
2026-05-06 15:09 41.21860 2.64078 34938 ft 495 kts 108°
2026-05-06 15:09 41.20349 2.73008 34936 ft 496 kts 108°
2026-05-06 15:10 41.18831 2.81939 34932 ft 496 kts 108°
2026-05-06 15:10 41.17307 2.90859 34937 ft 496 kts 108°
2026-05-06 15:11 41.15775 2.99780 34936 ft 496 kts 108°
2026-05-06 15:11 41.14233 3.08712 34942 ft 496 kts 108°
2026-05-06 15:12 41.12685 3.17636 34944 ft 496 kts 108°
2026-05-06 15:12 41.11131 3.26551 34947 ft 496 kts 108°
2026-05-06 15:13 41.09569 3.35468 34950 ft 496 kts 108°
2026-05-06 15:13 41.08001 3.44378 34950 ft 496 kts 108°
2026-05-06 15:14 41.06438 3.53219 34953 ft 496 kts 108°
2026-05-06 15:14 41.04857 3.62116 34956 ft 496 kts 109°
2026-05-06 15:15 41.03272 3.70993 34951 ft 495 kts 109°
2026-05-06 15:15 41.01682 3.79853 34960 ft 494 kts 109°
2026-05-06 15:16 41.00085 3.88704 34956 ft 494 kts 109°
2026-05-06 15:16 40.98480 3.97546 34955 ft 494 kts 109°
2026-05-06 15:17 40.96872 4.06370 34946 ft 493 kts 109°
2026-05-06 15:17 40.95260 4.15171 34943 ft 493 kts 109°
2026-05-06 15:18 40.93640 4.23978 34946 ft 492 kts 109°
2026-05-06 15:18 40.92014 4.32771 34943 ft 492 kts 109°
2026-05-06 15:19 40.90384 4.41549 34946 ft 492 kts 109°
2026-05-06 15:19 40.88749 4.50322 34947 ft 491 kts 109°
2026-05-06 15:20 40.87114 4.59088 34947 ft 491 kts 109°
2026-05-06 15:20 40.85585 4.67894 34949 ft 495 kts 103°
2026-05-06 15:21 40.84749 4.76935 34950 ft 496 kts 102°
2026-05-06 15:21 40.83915 4.85986 34951 ft 496 kts 102°
2026-05-06 15:22 40.83069 4.95025 34951 ft 496 kts 102°
2026-05-06 15:22 40.82217 5.04060 34953 ft 496 kts 102°
2026-05-06 15:23 40.81359 5.13082 34958 ft 495 kts 102°
2026-05-06 15:23 40.80493 5.22103 34956 ft 495 kts 102°
2026-05-06 15:24 40.79623 5.31105 34955 ft 494 kts 102°
2026-05-06 15:24 40.78745 5.40103 34954 ft 494 kts 102°
2026-05-06 15:25 40.77862 5.49081 34950 ft 493 kts 102°
2026-05-06 15:25 40.76978 5.57994 34951 ft 493 kts 102°
2026-05-06 15:26 40.76083 5.66947 34953 ft 492 kts 102°
2026-05-06 15:26 40.75183 5.75889 34961 ft 491 kts 102°
2026-05-06 15:27 40.74277 5.84812 34949 ft 491 kts 102°
2026-05-06 15:27 40.73365 5.93722 34945 ft 490 kts 102°
2026-05-06 15:28 40.72447 6.02623 34951 ft 489 kts 102°
2026-05-06 15:28 40.71525 6.11502 34949 ft 489 kts 102°
2026-05-06 15:29 40.70596 6.20373 34945 ft 488 kts 102°
2026-05-06 15:29 40.69659 6.29226 34944 ft 488 kts 102°
2026-05-06 15:30 40.68717 6.38069 34948 ft 487 kts 102°
2026-05-06 15:30 40.67769 6.46901 34944 ft 487 kts 102°
2026-05-06 15:31 40.66816 6.55719 34948 ft 486 kts 103°
2026-05-06 15:31 40.65856 6.64534 34948 ft 486 kts 103°
2026-05-06 15:32 40.64406 6.77731 34945 ft 485 kts 103°
2026-05-06 15:32 40.63433 6.86510 34945 ft 485 kts 103°
2026-05-06 15:33 40.62453 6.95284 34946 ft 484 kts 103°
2026-05-06 15:33 40.61468 7.04048 34943 ft 484 kts 103°
2026-05-06 15:34 40.60477 7.12800 34942 ft 483 kts 103°
2026-05-06 15:34 40.59480 7.21547 34943 ft 483 kts 103°
2026-05-06 15:35 40.58477 7.30278 34946 ft 483 kts 103°
2026-05-06 15:35 40.57468 7.39006 34943 ft 482 kts 103°
2026-05-06 15:36 40.56660 7.47771 34941 ft 486 kts 96°
2026-05-06 15:36 40.57115 7.56683 34940 ft 491 kts 86°
2026-05-06 15:37 40.57899 7.65596 34943 ft 490 kts 87°
2026-05-06 15:37 40.58663 7.74506 34939 ft 490 kts 87°
2026-05-06 15:38 40.59420 7.83423 34939 ft 490 kts 87°
2026-05-06 15:38 40.60170 7.92333 34936 ft 490 kts 88°
2026-05-06 15:39 40.60914 8.01249 34939 ft 490 kts 88°
2026-05-06 15:39 40.61653 8.10166 34939 ft 490 kts 88°
2026-05-06 15:40 40.62347 8.19023 34943 ft 489 kts 91°
2026-05-06 15:40 40.62023 8.27859 34947 ft 480 kts 104°
2026-05-06 15:41 40.60522 8.36348 34945 ft 475 kts 110°
2026-05-06 15:41 40.58911 8.44775 34948 ft 475 kts 110°
2026-05-06 15:42 40.57571 8.51773 34935 ft 473 kts 110°
2026-05-06 15:42 40.55952 8.60162 34939 ft 474 kts 110°
2026-05-06 15:43 40.54322 8.68558 34947 ft 474 kts 110°
2026-05-06 15:43 40.52690 8.76936 34943 ft 473 kts 110°
2026-05-06 15:44 40.51050 8.85318 34941 ft 473 kts 110°
2026-05-06 15:44 40.49403 8.93699 34940 ft 474 kts 111°
2026-05-06 15:45 40.47750 9.02076 34943 ft 474 kts 111°
2026-05-06 15:45 40.46092 9.10448 34941 ft 474 kts 111°
2026-05-06 15:46 40.44427 9.18816 34945 ft 474 kts 111°
2026-05-06 15:46 40.42752 9.27201 34953 ft 475 kts 111°
2026-05-06 15:47 40.41070 9.35589 34956 ft 475 kts 111°
2026-05-06 15:47 40.39382 9.43973 34952 ft 476 kts 112°
2026-05-06 15:48 40.37687 9.52359 34956 ft 475 kts 112°
2026-05-06 15:48 40.35988 9.60733 34949 ft 475 kts 112°
2026-05-06 15:49 40.34285 9.69085 34943 ft 474 kts 112°
2026-05-06 15:49 40.32573 9.77445 34945 ft 475 kts 112°
2026-05-06 15:50 40.30854 9.85805 34950 ft 476 kts 112°
2026-05-06 15:50 40.29126 9.94178 34947 ft 476 kts 112°
2026-05-06 15:51 40.27392 10.02551 34941 ft 476 kts 112°
2026-05-06 15:51 40.25650 10.10921 34940 ft 477 kts 112°
2026-05-06 15:52 40.23900 10.19301 34947 ft 477 kts 112°
2026-05-06 15:52 40.22141 10.27688 34949 ft 478 kts 112°
2026-05-06 15:53 40.20375 10.36076 34952 ft 479 kts 112°
2026-05-06 15:53 40.18601 10.44466 34954 ft 479 kts 112°
2026-05-06 15:54 40.16821 10.52863 34956 ft 479 kts 112°
2026-05-06 15:54 40.15035 10.61254 34956 ft 480 kts 112°
2026-05-06 15:55 40.13239 10.69658 34961 ft 480 kts 112°
2026-05-06 15:55 40.11437 10.78067 34960 ft 481 kts 112°
2026-05-06 15:56 40.09628 10.86473 34963 ft 481 kts 112°
2026-05-06 15:56 40.07812 10.94881 34970 ft 481 kts 112°
2026-05-06 15:57 40.05989 11.03283 34974 ft 481 kts 112°
2026-05-06 15:57 40.04159 11.11688 34967 ft 481 kts 112°
2026-05-06 15:58 40.02334 11.20043 34968 ft 478 kts 112°
2026-05-06 15:58 40.00502 11.28386 34966 ft 478 kts 112°
2026-05-06 15:59 39.98668 11.36712 34971 ft 478 kts 112°
2026-05-06 15:59 39.96826 11.45045 34968 ft 479 kts 112°
2026-05-06 16:00 39.94987 11.53331 34971 ft 479 kts 112°
2026-05-06 16:00 39.93129 11.61671 34968 ft 479 kts 112°
2026-05-06 16:01 39.91265 11.70012 34971 ft 480 kts 112°
2026-05-06 16:01 39.89391 11.78361 34975 ft 480 kts 112°
2026-05-06 16:02 39.87109 11.86439 34979 ft 468 kts 127°
2026-05-06 16:02 39.85272 11.89863 34972 ft 456 kts 139°
2026-05-06 16:02 39.83032 11.92707 34972 ft 445 kts 149°
2026-05-06 16:03 39.78025 11.97341 34982 ft 442 kts 152°
2026-05-06 16:03 39.73003 12.01962 34983 ft 442 kts 152°
2026-05-06 16:04 39.67979 12.06579 34979 ft 442 kts 152°
2026-05-06 16:04 39.62950 12.11190 34979 ft 442 kts 152°
2026-05-06 16:05 39.57918 12.15794 34982 ft 443 kts 152°
2026-05-06 16:05 39.52870 12.20404 34983 ft 445 kts 152°
2026-05-06 16:06 39.47807 12.25019 34985 ft 445 kts 152°
2026-05-06 16:06 39.42736 12.29635 34979 ft 446 kts 152°
2026-05-06 16:07 39.37651 12.34253 34980 ft 447 kts 152°
2026-05-06 16:07 39.32592 12.38840 34983 ft 448 kts 152°
2026-05-06 16:08 39.27487 12.43461 34981 ft 448 kts 152°
2026-05-06 16:08 39.22378 12.48077 34976 ft 449 kts 152°
2026-05-06 16:09 39.17257 12.52696 34979 ft 449 kts 152°
2026-05-06 16:09 39.12133 12.57308 34974 ft 450 kts 152°
2026-05-06 16:10 39.06991 12.61929 34976 ft 451 kts 152°
2026-05-06 16:10 39.01847 12.66543 34974 ft 451 kts 152°
2026-05-06 16:11 38.96698 12.71153 34975 ft 451 kts 152°
2026-05-06 16:11 38.91539 12.75763 34972 ft 452 kts 152°
2026-05-06 16:12 38.86472 12.80284 34968 ft 452 kts 152°
2026-05-06 16:12 38.81304 12.84886 34967 ft 452 kts 152°
2026-05-06 16:13 38.76129 12.89486 34966 ft 453 kts 152°
2026-05-06 16:13 38.71030 12.94011 34968 ft 453 kts 152°
2026-05-06 16:14 38.65847 12.98602 34963 ft 453 kts 152°
2026-05-06 16:14 38.60655 13.03192 34966 ft 454 kts 151°
2026-05-06 16:15 38.55461 13.07776 34958 ft 454 kts 151°
2026-05-06 16:15 38.50264 13.12355 34845 ft 453 kts 151°
2026-05-06 16:16 38.47670 13.14638 34314 ft 454 kts 151°
2026-05-06 16:16 38.45055 13.16933 33410 ft 460 kts 151°
2026-05-06 16:16 38.42398 13.19261 32314 ft 467 kts 151°
2026-05-06 16:16 38.39694 13.21629 31153 ft 476 kts 151°
2026-05-06 16:17 38.36945 13.24037 30104 ft 482 kts 150°
2026-05-06 16:17 38.34174 13.26465 29036 ft 484 kts 150°
2026-05-06 16:17 38.31416 13.28883 28408 ft 477 kts 150°
2026-05-06 16:17 38.28717 13.31250 28045 ft 465 kts 150°
2026-05-06 16:18 38.26069 13.33569 27546 ft 458 kts 150°
2026-05-06 16:18 38.23465 13.35843 27022 ft 451 kts 150°
2026-05-06 16:18 38.20899 13.38079 26509 ft 445 kts 150°
2026-05-06 16:18 38.18364 13.40286 26008 ft 439 kts 150°
2026-05-06 16:19 38.15860 13.42464 25509 ft 433 kts 150°
2026-05-06 16:19 38.13419 13.44585 25021 ft 428 kts 150°
2026-05-06 16:19 38.10975 13.46707 24530 ft 424 kts 150°
2026-05-06 16:19 38.08548 13.48812 24027 ft 420 kts 149°
2026-05-06 16:20 38.06142 13.50897 23522 ft 417 kts 149°
2026-05-06 16:20 38.03764 13.52958 23020 ft 411 kts 149°
2026-05-06 16:20 38.01388 13.55017 22549 ft 406 kts 149°
2026-05-06 16:20 37.99068 13.57025 22073 ft 401 kts 149°
2026-05-06 16:21 37.96806 13.58981 21610 ft 397 kts 149°
2026-05-06 16:21 37.94541 13.60938 21140 ft 392 kts 149°
2026-05-06 16:21 37.92298 13.62876 20684 ft 388 kts 149°
2026-05-06 16:21 37.90071 13.64821 19952 ft 393 kts 146°
2026-05-06 16:22 37.88079 13.67265 19029 ft 408 kts 131°
2026-05-06 16:22 37.86584 13.70354 17910 ft 418 kts 116°
2026-05-06 16:22 37.85523 13.73778 16906 ft 416 kts 114°
2026-05-06 16:22 37.84489 13.77158 16083 ft 408 kts 114°
2026-05-06 16:23 37.83464 13.80474 15241 ft 401 kts 114°
2026-05-06 16:23 37.82450 13.83724 14466 ft 393 kts 115°
2026-05-06 16:23 37.81447 13.86916 13660 ft 388 kts 115°
2026-05-06 16:23 37.80455 13.90065 12748 ft 383 kts 115°
2026-05-06 16:24 37.79473 13.93171 11934 ft 377 kts 115°
2026-05-06 16:24 37.78509 13.96229 11130 ft 372 kts 115°
2026-05-06 16:24 37.77567 13.99211 10750 ft 356 kts 114°
2026-05-06 16:24 37.76674 14.02028 10545 ft 335 kts 115°
2026-05-06 16:25 37.75816 14.04683 10363 ft 317 kts 115°
2026-05-06 16:25 37.75002 14.07184 10190 ft 300 kts 115°
2026-05-06 16:25 37.74215 14.09590 9720 ft 294 kts 116°
2026-05-06 16:25 37.73436 14.11967 9114 ft 292 kts 115°
2026-05-06 16:26 37.72667 14.14318 8601 ft 288 kts 115°
2026-05-06 16:26 37.71906 14.16646 8177 ft 286 kts 115°
2026-05-06 16:26 37.71158 14.18936 8015 ft 280 kts 115°
2026-05-06 16:26 37.70407 14.21236 7987 ft 287 kts 115°
2026-05-06 16:27 37.69905 14.22772 7991 ft 284 kts 115°
2026-05-06 16:27 37.69151 14.25075 7993 ft 284 kts 115°
2026-05-06 16:27 37.68153 14.28129 7989 ft 284 kts 115°
2026-05-06 16:27 37.67400 14.30432 7995 ft 285 kts 115°
2026-05-06 16:28 37.66643 14.32744 7985 ft 285 kts 115°
2026-05-06 16:28 37.65897 14.35027 7955 ft 278 kts 115°
2026-05-06 16:28 37.65174 14.37241 7882 ft 268 kts 115°
2026-05-06 16:28 37.64702 14.38684 7796 ft 261 kts 115°
2026-05-06 16:29 37.64008 14.40793 7508 ft 258 kts 115°
2026-05-06 16:29 37.63323 14.42871 7265 ft 255 kts 115°
2026-05-06 16:29 37.62474 14.44821 7036 ft 252 kts 136°
2026-05-06 16:29 37.61072 14.45985 6976 ft 244 kts 165°
2026-05-06 16:30 37.59391 14.46106 6983 ft 246 kts 189°
2026-05-06 16:30 37.58246 14.45837 6976 ft 248 kts 192°
2026-05-06 16:30 37.56027 14.45198 6915 ft 247 kts 193°
2026-05-06 16:30 37.54356 14.44735 6736 ft 242 kts 192°
2026-05-06 16:31 37.52743 14.44323 6647 ft 231 kts 191°
2026-05-06 16:31 37.51187 14.44054 6516 ft 222 kts 181°
2026-05-06 16:31 37.49656 14.44188 6270 ft 219 kts 173°
2026-05-06 16:31 37.48157 14.44422 6081 ft 217 kts 173°
2026-05-06 16:32 37.46638 14.44644 5907 ft 222 kts 173°
2026-05-06 16:32 37.45097 14.44863 5744 ft 223 kts 173°
2026-05-06 16:32 37.43567 14.45091 5559 ft 220 kts 168°
2026-05-06 16:32 37.42222 14.45938 5375 ft 220 kts 135°
2026-05-06 16:33 37.41459 14.47613 5208 ft 228 kts 103°
2026-05-06 16:33 37.41426 14.49610 5056 ft 230 kts 85°
2026-05-06 16:33 37.41677 14.51573 4984 ft 226 kts 81°
2026-05-06 16:34 37.42217 14.55497 4977 ft 227 kts 83°
2026-05-06 16:34 37.42429 14.57472 4989 ft 228 kts 84°
2026-05-06 16:34 37.42617 14.59437 4987 ft 227 kts 85°
2026-05-06 16:34 37.42794 14.61421 4986 ft 228 kts 85°
2026-05-06 16:35 37.42968 14.63401 4989 ft 227 kts 85°
2026-05-06 16:35 37.43143 14.65387 4967 ft 228 kts 85°
2026-05-06 16:35 37.43370 14.67342 4796 ft 225 kts 82°
2026-05-06 16:35 37.43593 14.69287 4675 ft 226 kts 84°
2026-05-06 16:36 37.43767 14.71261 4578 ft 227 kts 85°
2026-05-06 16:36 37.43928 14.73233 4477 ft 226 kts 85°
2026-05-06 16:36 37.44088 14.75205 4378 ft 226 kts 85°
2026-05-06 16:36 37.44246 14.77165 4233 ft 226 kts 85°
2026-05-06 16:37 37.44406 14.79126 4002 ft 224 kts 85°
2026-05-06 16:37 37.44565 14.81069 3739 ft 223 kts 85°
2026-05-06 16:37 37.44722 14.83007 3475 ft 223 kts 86°
2026-05-06 16:37 37.44882 14.84947 3182 ft 223 kts 86°
2026-05-06 16:38 37.45037 14.86853 2895 ft 221 kts 85°
2026-05-06 16:38 37.45195 14.88771 2609 ft 219 kts 86°
2026-05-06 16:38 37.45347 14.90626 2314 ft 206 kts 86°
2026-05-06 16:38 37.45490 14.92349 2050 ft 190 kts 85°
2026-05-06 16:39 37.45621 14.93935 1845 ft 175 kts 85°
2026-05-06 16:39 37.45742 14.95399 1599 ft 161 kts 86°
2026-05-06 16:39 37.45852 14.96735 1402 ft 147 kts 85°
2026-05-06 16:39 37.45954 14.97962 1215 ft 134 kts 85°
2026-05-06 16:40 37.46049 14.99115 1052 ft 128 kts 84°
2026-05-06 16:40 37.46141 15.00207 891 ft 126 kts 84°
2026-05-06 16:40 37.46224 15.01318 773 ft 128 kts 85°
2026-05-06 16:40 37.46294 15.02412 543 ft 122 kts 82°
2026-05-06 16:41 37.46399 15.03478 366 ft 125 kts 82°
2026-05-06 16:41 37.46500 15.04560 222 ft 124 kts 82°
2026-05-06 16:41 37.46593 15.05633 50 ft 121 kts 83°
2026-05-06 16:41 37.46673 15.06554 36 ft 81 kts 85°
2026-05-06 16:42 37.46702 15.06907 36 ft 1 kts 77°
2026-05-06 16:42 37.46749 15.06928 35 ft 12 kts 356°
2026-05-06 16:42 37.46804 15.06903 32 ft 0 kts 338°
2026-05-06 16:42 37.46816 15.06895 31 ft 6 kts 334°
2026-05-06 16:43 37.46835 15.06883 32 ft 0 kts 334°
2026-05-06 16:44 37.46850 15.06876 31 ft 7 kts 342°
2026-05-06 16:44 37.46904 15.06868 31 ft 8 kts 353°
2026-05-06 16:44 37.46940 15.06862 31 ft 1 kts 353°